Location: Foligno
(42.9600°N, 12.7050°E)
Time: 17:50:46
(UTC+02:00)

ISS - Pass Details

Date: 25 May 2020
Orbit: 417 x 420 km, 51.6° (Epoch: 26 May)

Event Time Altitude Azimuth Distance (km) Brightness Sun altitude
Rises 00:44:49 0° 302° (WNW) 2,367 0.6 -25.9°
Reaches altitude 10° 00:46:55 10° 301° (WNW) 1,501 -0.5 -25.9°
Enters shadow 00:47:37 15° 300° (WNW) 1,223 -1.0 -25.9°
